STARLINK-34267, 65080

Orbit data source: Space-Track

STARLINK-34267, 65080 is a payload satellite owned by SpaceX/Seattle (US) in LEO that was launched on Mon, 04 Aug 2025 UTC via an FALCON 9 launch vehicle from the Air Force Eastern Test Range (AFETR). Payload-class satellites include a variety of spacecraft equipped with specific instruments for various scientific and technological missions. These include communications satellites like Starlink; space stations such as the ISS; scientific satellites like the Hubble; Earth observation satellites from companies like Planet Labs, Umbra, and HawkEye 360; GPS; miniature CubeSats for education and research; and military/defense satellites.

Loading next visibility...
Identifier
65080, 2025-167C
Orbit
LEO
Country
Flag of USUS
Related business
Manufacturer
SpaceX/Seattle
Mission
Operational spacecraft
Bus & Motor
STARLINK V2MO, Unknown motor
Mass
575 kg wet, ~530 kg dry
Launch date (UTC)
2025-08-04 (1 month ago)
Launch vehicle
FALCON 9
Launch site
Air Force Eastern Test Range (AFETR)
Object type
Payload
Rocket body
Debris
Shape & HBR
Unknown
Radar Cross Section
Large (>1 m²)

Expand to show TLE details & history
Last TLE update: 9 hours ago

TLE from 9 hours ago
0 STARLINK-34267
1 65080U 25167C   25243.25001157  .00113122  00000-0  20173-2 0  9992
2 65080  53.1591 195.2349 0000931 137.9029 343.1450 15.49243225  5554
Epoch: 2025-08-31T06:00Z
TLE epoch observation values (Epoch: 2025-08-31T06:00:00.999Z)
Latitude
43.4274°
Longitude
-99.28941°
Altitude
422.661 km
Speed
7.664 km/s
True Right ascension
22h 01m 32s
True Declination
43° 14' 50"
Sunlit
Object was in full shadow at epoch
Visualization orbit readout
Latitude
Unknown
Longitude
Unknown
Altitude
Unknown
Speed
Unknown
Apparent Right ascension
Unknown
Apparent Declination
Unknown
Sunlit
N/A
Visualization observer readout
Local Sidereal Time
06:13:58
Azimuth
Unknown
Elevation
Unknown
Doppler factor
Unknown
Orbital elements
Apogee altitude
419.83 km
Perigee altitude
418.564 km
Semi-major axis
6,797.334 km
Eccentricity
0.00009
Inclination
53.1591°
RAAN
195.2349°
Arg. of periapsis
137.9029°
True anomaly
343.14191°
Mean anomaly
343.145°
Eccentric anomaly
343.14345°
Mean motion
3.87289 °/min
Orbital period
92.95 mins
BSTAR
0.0020173
Loading maneuver chart data...
Computing Atmospheric mass density...
Loading historical data...
Loading historical data...
Loading historical data...
Loading historical data...
Loading historical data...
Loading historical data...
Loading historical data...

Documentation

Showing up to 5 results
|